Location: Unspecified
(0.0000°N, 0.0000°E)
Time: 21:20:21
(UTC+00:00)

Tiros 1 despin weight - Pass Details

Date: 26 May 2022
Orbit: 591 x 639 km, 48.2° (Epoch: 25 June)

Event Time Altitude Azimuth Distance (km) Brightness Sun altitude
Rises 03:31:02 0° 307° (NW) 2,814 - -33.7°
Reaches altitude 10° 03:33:25 10° 299° (WNW) 1,920 - -33.2°
Maximum altitude 03:37:31 38° 231° (SW) 922 - -32.2°
Drops below altitude 10° 03:41:40 10° 162° (SSE) 1,952 - -31.3°
Sets 03:44:07 0° 154° (SSE) 2,866 - -30.7°
